This demonstration page uses our WeatherBlox Daily Observations layout. Learn more.

Left ArrowRight Arrow

Hourly Observations for April 30, 2022

Temp ( °F °C ) Dew Point ( °F °C ) Humidity (%) Winds ( mph kmh ) Pressure ( in mb ) Visibility ( mi km ) Precip ( " mm )
12:15 am 00:15 Cloudy with Light Rain 52 11 49 9.2 89 89 W 13 20 29.56 1001 7 11 0.01 0.25
12:35 am 00:35 Cloudy with Rain 50 10.2 48 8.8 91 91 W 15 24 29.57 1001 7 11 0.04 1.02
12:55 am 00:55 Cloudy with Rain 51 10.3 49 9.3 94 94 WNW 22 35 29.58 1002 5 8 0.10 2.54
1:15 am 01:15 Cloudy with Rain 50 10 47 8.6 91 91 WNW 23 37 29.59 1002 5 8 0.04 1.02
1:35 am 01:35 Cloudy with Light Rain 50 9.8 47 8.3 90 90 WNW 21 33 29.59 1002 7 11 0.06 1.52
1:55 am 01:55 Cloudy with Light Rain 49 9.7 47 8.4 92 92 WNW 21 33 29.60 1002 7 11 0.09 2.29
2:15 am 02:15 Cloudy with Rain 49 9.7 46 8 89 89 WNW 25 41 29.60 1002 7 11 0.02 0.51
2:35 am 02:35 Cloudy with Rain 49 9.2 46 7.7 90 90 WNW 25 41 29.60 1002 7 11 0.06 1.52
2:55 am 02:55 Cloudy with Rain 48 8.8 45 7.2 90 90 WNW 23 37 29.60 1002 7 11 0.10 2.54
3:15 am 03:15 Cloudy with Light Rain 47 8.5 44 6.5 87 87 WNW 22 35 29.61 1003 10 16 0.02 0.51
3:35 am 03:35 Cloudy with Light Rain 46 7.9 43 6 88 88 WNW 31 50 29.61 1003 10 16 0.03 0.76
3:55 am 03:55 Cloudy with Light Rain 46 7.5 43 6 90 90 WNW 31 50 29.61 1003 7 11 0.04 1.02
4:15 am 04:15 Cloudy with Rain 45 7 42 5.5 90 90 WNW 30 48 29.62 1003 7 11 0.01 0.25
4:35 am 04:35 Cloudy with Light Rain 44 6.8 41 5 88 88 WNW 32 52 29.63 1003 10 16 0.01 0.25
4:55 am 04:55 Cloudy with Drizzle 44 6.5 41 4.8 89 89 NW 35 56 29.63 1004 7 11 0.02 0.51
5:15 am 05:15 Cloudy with Drizzle 43 6.1 40 4.6 90 90 NW 33 54 29.65 1004 7 11 0.01 0.25
5:35 am 05:35 Cloudy with Light Rain 43 6 40 4.4 90 90 NW 30 48 29.65 1004 10 16 0.01 0.25
5:55 am 05:55 Cloudy with Light Rain 43 6 40 4.5 90 90 NW 33 54 29.65 1004 10 16 0.02 0.51
6:15 am 06:15 Cloudy with Light Rain 43 6 40 4.5 90 90 NW 30 48 29.66 1004 10 16 0.01 0.25
6:35 am 06:35 Cloudy with Light Rain 43 6 40 4.5 90 90 NW 29 46 29.67 1005 10 16 0.02 0.51
6:55 am 06:55 Cloudy with Drizzle 43 6 40 4.4 90 90 NW 32 52 29.67 1005 10 16 0.03 0.76
7:15 am 07:15 Cloudy 44 6.4 40 4.5 88 88 NW 29 46 29.66 1005 10 16 0.00 0.00
7:35 am 07:35 Cloudy 44 6.8 40 4.6 86 86 NW 29 46 29.67 1005 10 16 0.00 0.00
7:55 am 07:55 Cloudy 45 7.2 40 4.7 84 84 NW 26 43 29.68 1005 10 16 0.00 0.00
8:15 am 08:15 Cloudy 46 7.7 40 4.6 81 81 NW 28 44 29.68 1005 10 16 0.00 0.00
8:35 am 08:35 Cloudy 46 7.8 40 4.5 80 80 NW 38 61 29.68 1005 10 16 0.00 0.00
8:55 am 08:55 Cloudy 46 8 40 4.7 80 80 NW 30 48 29.69 1005 10 16 0.00 0.00
9:15 am 09:15 Cloudy 47 8.2 40 4.6 78 78 NW 37 59 29.71 1006 10 16 0.00 0.00
9:35 am 09:35 Cloudy 47 8.5 40 4.7 77 77 NW 32 52 29.72 1006 10 16 0.00 0.00
9:55 am 09:55 Cloudy 47 8.6 41 4.9 78 78 NW 30 48 29.74 1007 10 16 0.00 0.00
10:15 am 10:15 Cloudy 47 8.6 40 4.6 76 76 NW 31 50 29.75 1007 10 16 0.00 0.00
10:35 am 10:35 Cloudy 48 8.7 40 4.6 76 76 NW 35 56 29.75 1008 10 16 0.00 0.00
10:55 am 10:55 Cloudy 48 8.9 40 4.6 75 75 NW 35 56 29.76 1008 10 16 0.00 0.00
11:15 am 11:15 Cloudy 47 8.6 40 4.6 76 76 NW 35 56 29.79 1009 10 16 0.00 0.00
11:35 am 11:35 Cloudy 49 9.2 40 4.6 73 73 NW 33 54 29.79 1009 10 16 0.00 0.00
11:55 am 11:55 Cloudy 48 9 39 4 71 71 NW 32 52 29.80 1009 10 16 0.00 0.00
12:15 pm 12:15 Cloudy 49 9.5 39 4.1 69 69 NW 37 59 29.81 1009 10 16 0.00 0.00
12:35 pm 12:35 Cloudy 50 10.1 40 4.5 68 68 NW 36 57 29.80 1009 10 16 0.00 0.00
12:55 pm 12:55 Cloudy 52 11.2 41 5.1 66 66 NW 35 56 29.79 1009 10 16 0.00 0.00
1:15 pm 13:15 Cloudy 52 11.2 40 4.5 64 64 NW 31 50 29.80 1009 10 16 0.00 0.00
1:35 pm 13:35 Cloudy 53 11.9 39 3.9 58 58 NW 33 54 29.80 1009 10 16 0.00 0.00
1:55 pm 13:55 Cloudy 55 12.8 40 4.3 57 57 NW 35 56 29.79 1009 10 16 0.00 0.00
2:15 pm 14:15 Mostly Cloudy 56 13.5 40 4.4 54 54 NW 35 56 29.78 1009 10 16 0.00 0.00
2:35 pm 14:35 Cloudy 56 13.4 38 3.6 52 52 NW 31 50 29.78 1009 10 16 0.00 0.00
2:55 pm 14:55 Cloudy 56 13.6 40 4.2 53 53 NW 29 46 29.78 1009 10 16 0.00 0.00
3:15 pm 15:15 Cloudy 56 13.3 39 3.9 53 53 NNW 31 50 29.79 1009 10 16 0.00 0.00
3:35 pm 15:35 Mostly Cloudy 58 14.2 38 3.6 49 49 NNW 30 48 29.79 1009 10 16 0.00 0.00
3:55 pm 15:55 Mostly Cloudy 59 14.8 38 3.6 47 47 NW 33 54 29.78 1009 10 16 0.00 0.00
4:15 pm 16:15 Cloudy 59 14.8 36 2.4 43 43 NW 35 56 29.78 1009 10 16 0.00 0.00
4:35 pm 16:35 Cloudy 59 14.9 37 2.7 44 44 NNW 30 48 29.78 1008 10 16 0.00 0.00
4:55 pm 16:55 Mostly Cloudy 59 15 37 3 45 45 NW 36 57 29.79 1009 10 16 0.00 0.00
5:15 pm 17:15 Mostly Cloudy 59 14.9 37 2.9 45 45 NW 30 48 29.79 1009 10 16 0.00 0.00
5:35 pm 17:35 Cloudy 59 14.8 37 2.8 45 45 NW 23 37 29.80 1009 10 16 0.00 0.00
5:55 pm 17:55 Cloudy 58 14.5 37 3 46 46 NW 26 43 29.80 1009 10 16 0.00 0.00
6:15 pm 18:15 Mostly Cloudy 58 14.6 36 2.1 43 43 NW 28 44 29.81 1010 10 16 0.00 0.00
6:35 pm 18:35 Partly Cloudy 57 14 36 2.4 46 46 NW 22 35 29.83 1010 10 16 0.00 0.00
6:55 pm 18:55 Partly Cloudy 57 13.8 37 2.7 47 47 NW 21 33 29.83 1010 10 16 0.00 0.00
7:15 pm 19:15 Partly Cloudy 57 14 37 2.7 47 47 NW 21 33 29.83 1010 10 16 0.00 0.00
7:35 pm 19:35 Sunny 57 13.7 37 3 49 49 NNW 17 28 29.84 1011 10 16 0.00 0.00
7:55 pm 19:55 Sunny 56 13.1 38 3.5 52 52 NW 15 24 29.86 1011 10 16 0.00 0.00
8:15 pm 20:15 Sunny 54 12.2 39 3.8 57 57 NW 13 20 29.87 1012 10 16 0.00 0.00
8:35 pm 20:35 Clear 52 11 39 4.1 63 63 NW 8 13 29.89 1012 10 16 0.00 0.00
8:55 pm 20:55 Clear 50 10.2 39 3.7 64 64 NW 9 15 29.90 1013 10 16 0.00 0.00
9:15 pm 21:15 Clear 50 10.2 38 3.2 62 62 NW 8 13 29.91 1013 10 16 0.00 0.00
9:35 pm 21:35 Clear 50 10.1 37 2.8 61 61 WNW 9 15 29.92 1013 10 16 0.00 0.00
9:55 pm 21:55 Clear 50 9.9 36 2.4 60 60 NW 10 17 29.93 1014 10 16 0.00 0.00
10:15 pm 22:15 Clear 48 9 36 2.2 63 63 NW 8 13 29.95 1014 10 16 0.00 0.00
10:35 pm 22:35 Clear 47 8.3 36 2.2 66 66 WNW 9 15 29.96 1014 10 16 0.00 0.00
10:55 pm 22:55 Clear 47 8.1 36 2 66 66 WNW 9 15 29.97 1015 10 16 0.00 0.00
11:15 pm 23:15 Clear 46 7.6 36 2 68 68 WNW 9 15 29.98 1015 10 16 0.00 0.00
11:35 pm 23:35 Clear 46 7.7 35 1.5 65 65 NW 9 15 29.98 1015 10 16 0.00 0.00
11:55 pm 23:55 Clear 46 7.8 35 1.4 64 64 NW 10 17 29.97 1015 10 16 0.00 0.00

Powered by AerisWeather